This is the latest recevied weather packets stored in our database for station/object NI4CE-10. If no packets are shown the sender has not sent any weather packets the latest 10 day(s).
| Time | Temp. | Humidity | Pressure | Rain* | Wind** | Luminosity | Snow |
|---|---|---|---|---|---|---|---|
| 1788293881 | 28.33° C | 100% | 1016.3 hPa | 3.05 mm | - | - | - |
| 1788293583 | 28.89° C | 100% | 1016.5 hPa | 3.56 mm | - | - | - |
| 1788293281 | 28.89° C | 100% | 1016.5 hPa | 3.56 mm | - | - | - |
| 1788292981 | 28.33° C | 100% | 1016.5 hPa | 3.56 mm | - | - | - |
| 1788292681 | 28.33° C | 100% | 1016.7 hPa | 3.56 mm | - | - | - |
| 1788292381 | 28.33° C | 100% | 1016.8 hPa | 3.56 mm | - | - | - |
| 1788292081 | 27.78° C | 100% | 1016.8 hPa | 3.56 mm | - | - | - |
| 1788291781 | 27.78° C | 100% | 1016.8 hPa | 3.3 mm | - | - | - |
| 1788291481 | 27.22° C | 100% | 1016.7 hPa | 2.79 mm | - | - | - |
| 1788291181 | 27.78° C | 100% | 1016.9 hPa | 2.29 mm | - | - | - |
| 1788290881 | 28.33° C | 100% | 1017.1 hPa | 1.52 mm | - | - | - |
| 1788290581 | 28.89° C | 100% | 1017 hPa | 1.02 mm | - | - | - |
| 1788290281 | 28.33° C | 100% | 1017 hPa | 0.51 mm | - | - | - |
| 1788289981 | 31.67° C | 100% | 1016.8 hPa | 0 mm | - | - | - |
| 1788289681 | 33.89° C | 100% | 1016.8 hPa | 0 mm | - | - | - |
| 1788289381 | 35.56° C | 100% | 1016.7 hPa | 0 mm | - | - | - |
| 1788289246 | 35.56° C | 100% | 1016.7 hPa | 0 mm | - | - | - |
| 1788289081 | 35.56° C | 100% | 1016.7 hPa | 0 mm | - | - | - |
| 1788288781 | 35.56° C | 100% | 1016.7 hPa | 0 mm | - | - | - |
| 1788288502 | 35.56° C | 100% | 1016.8 hPa | 0 mm | - | - | - |
| 1788288181 | 35° C | 100% | 1017 hPa | 0 mm | - | - | - |
| 1788287881 | 35° C | 100% | 1017 hPa | 0 mm | - | - | - |
| 1788287581 | 35° C | 100% | 1017.1 hPa | 0 mm | - | - | - |
| 1788287281 | 35.56° C | 100% | 1017 hPa | 0 mm | - | - | - |
| 1788286981 | 36.67° C | 100% | 1017.1 hPa | 0 mm | - | - | - |
* Rain latest hour (hover to see other rain measurements)
** Current wind speed in m/s (hover to see current wind gust speed)